Time,TemperatureF,DewpointF,PressureIn,WindDirection,WindDirectionDegrees,WindSpeedMPH,WindSpeedGustMPH,Humidity,HourlyPrecipIn,Conditions,Clouds,dailyrainin,SoftwareType,DateUTC
2013-02-26 00:00:00,28.1,28.1,28.92,ESE,111,0.0,0.0,100,0.00,,,0.00,VWS V14.01,2013-02-26 06:00:00,
2013-02-26 00:05:00,28.0,28.0,28.92,ESE,111,0.0,2.0,100,0.00,,,0.00,VWS V14.01,2013-02-26 06:05:00,
2013-02-26 00:10:00,27.9,27.9,28.92,NE,43,1.0,1.0,100,0.00,,,0.00,VWS V14.01,2013-02-26 06:10:00,
2013-02-26 00:15:00,27.8,27.8,28.92,NE,43,0.0,3.0,100,0.00,,,0.00,VWS V14.01,2013-02-26 06:15:00,
2013-02-26 00:20:00,27.8,27.8,28.92,NE,43,1.0,1.0,100,0.00,,,0.00,VWS V14.01,2013-02-26 06:20:00,
2013-02-26 00:25:00,27.8,27.8,28.92,NNE,25,3.0,4.0,100,0.00,,,0.00,VWS V14.01,2013-02-26 06:25:00,
2013-02-26 00:30:00,27.7,27.7,28.92,NNE,25,1.0,3.0,100,0.00,,,0.00,VWS V14.01,2013-02-26 06:30:00,
2013-02-26 00:35:00,27.7,27.7,28.91,North,2,1.0,5.0,100,0.00,,,0.00,VWS V14.01,2013-02-26 06:35:00,
2013-02-26 00:40:00,27.6,27.6,28.90,North,0,2.0,2.0,100,0.00,,,0.00,VWS V14.01,2013-02-26 06:40:00,
2013-02-26 00:45:00,27.7,27.7,28.90,NNE,15,3.0,5.0,100,0.00,,,0.00,VWS V14.01,2013-02-26 06:45:00,
2013-02-26 00:50:00,27.6,27.6,28.90,NNE,15,1.0,1.0,100,0.00,,,0.00,VWS V14.01,2013-02-26 06:50:00,
2013-02-26 00:55:00,27.6,27.6,28.90,NNE,15,1.0,2.0,100,0.00,,,0.00,VWS V14.01,2013-02-26 06:55:00,
2013-02-26 01:00:00,27.5,27.5,28.90,NNE,15,3.0,3.0,100,0.00,,,0.00,VWS V14.01,2013-02-26 07:00:00,
2013-02-26 01:05:00,27.5,27.5,28.90,NNE,15,0.0,3.0,100,0.00,,,0.00,VWS V14.01,2013-02-26 07:05:00,
2013-02-26 01:10:00,27.4,27.4,28.90,North,0,0.0,0.0,100,0.00,,,0.00,VWS V14.01,2013-02-26 07:10:00,
2013-02-26 01:15:00,27.4,27.4,28.89,North,6,1.0,3.0,100,0.00,,,0.00,VWS V14.01,2013-02-26 07:15:00,
2013-02-26 01:20:00,27.4,27.4,28.89,North,6,1.0,1.0,100,0.00,,,0.00,VWS V14.01,2013-02-26 07:20:00,
2013-02-26 01:25:00,27.3,27.3,28.89,North,6,0.0,2.0,100,0.00,,,0.00,VWS V14.01,2013-02-26 07:25:00,
2013-02-26 01:30:00,27.2,27.2,28.89,NE,35,3.0,3.0,100,0.00,,,0.00,VWS V14.01,2013-02-26 07:30:00,
2013-02-26 01:35:00,27.2,27.2,28.89,East,98,1.0,4.0,100,0.00,,,0.00,VWS V14.01,2013-02-26 07:35:00,
2013-02-26 01:40:00,27.2,27.2,28.89,East,80,1.0,2.0,100,0.00,,,0.00,VWS V14.01,2013-02-26 07:40:00,
2013-02-26 01:45:00,27.1,27.1,28.89,ESE,117,0.0,2.0,100,0.00,,,0.00,VWS V14.01,2013-02-26 07:45:00,
2013-02-26 01:50:00,27.1,27.1,28.89,ENE,59,1.0,1.0,100,0.00,,,0.00,VWS V14.01,2013-02-26 07:50:00,
2013-02-26 01:55:00,27.1,27.1,28.89,ENE,59,0.0,2.0,100,0.00,,,0.00,VWS V14.01,2013-02-26 07:55:00,
2013-02-26 02:00:00,27.1,27.1,28.89,NE,34,1.0,1.0,100,0.00,,,0.00,VWS V14.01,2013-02-26 08:00:00,
2013-02-26 02:05:00,27.1,27.1,28.88,NNE,33,1.0,2.0,100,0.00,,,0.00,VWS V14.01,2013-02-26 08:05:00,
2013-02-26 02:10:00,27.1,27.1,28.89,NNE,33,1.0,1.0,100,0.00,,,0.00,VWS V14.01,2013-02-26 08:10:00,
2013-02-26 02:15:00,27.1,27.1,28.88,East,81,0.0,2.0,100,0.00,,,0.00,VWS V14.01,2013-02-26 08:15:00,
2013-02-26 02:20:00,27.1,27.1,28.88,East,81,0.0,2.0,100,0.00,,,0.00,VWS V14.01,2013-02-26 08:20:00,
2013-02-26 02:24:00,27.0,27.0,28.88,NE,56,1.0,2.0,100,0.00,,,0.00,VWS V14.01,2013-02-26 08:24:00,
2013-02-26 02:29:00,27.1,27.1,28.86,NNE,29,2.0,4.0,100,0.00,,,0.00,VWS V14.01,2013-02-26 08:29:00,
2013-02-26 02:34:00,27.1,27.1,28.86,NNE,28,0.0,6.0,100,0.00,,,0.00,VWS V14.01,2013-02-26 08:34:00,
2013-02-26 02:39:00,27.1,27.1,28.86,ENE,75,2.0,6.0,100,0.00,,CLR,0.00,VWS V14.01,2013-02-26 08:39:00,
2013-02-26 02:44:00,27.1,27.1,28.86,NNE,14,1.0,5.0,100,0.00,,CLR,0.00,VWS V14.01,2013-02-26 08:44:00,
2013-02-26 02:50:00,27.2,27.2,28.85,North,2,1.0,5.0,100,0.00,,CLR,0.00,VWS V14.01,2013-02-26 08:50:00,
2013-02-26 02:54:00,27.1,27.1,28.85,NNE,26,2.0,4.0,100,0.00,,CLR,0.00,VWS V14.01,2013-02-26 08:54:00,
2013-02-26 03:00:00,27.1,27.1,28.84,NNE,29,1.0,4.0,100,0.00,,CLR,0.00,VWS V14.01,2013-02-26 09:00:00,
2013-02-26 03:05:00,27.1,27.1,28.84,North,0,1.0,4.0,100,0.00,,CLR,0.00,VWS V14.01,2013-02-26 09:05:00,
2013-02-26 03:10:00,27.1,27.1,28.84,NNE,22,2.0,3.0,100,0.00,,CLR,0.00,VWS V14.01,2013-02-26 09:10:00,
2013-02-26 03:15:00,27.1,27.1,28.83,NNE,24,2.0,5.0,100,0.00,,CLR,0.00,VWS V14.01,2013-02-26 09:15:00,
2013-02-26 03:20:00,27.1,27.1,28.83,ENE,58,2.0,2.0,100,0.00,,CLR,0.00,VWS V14.01,2013-02-26 09:20:00,
2013-02-26 03:25:00,27.1,27.1,28.83,North,10,0.0,4.0,100,0.00,,CLR,0.00,VWS V14.01,2013-02-26 09:25:00,
2013-02-26 03:30:00,27.1,27.1,28.83,East,95,0.0,0.0,100,0.00,,CLR,0.00,VWS V14.01,2013-02-26 09:30:00,
2013-02-26 03:35:00,27.1,27.1,28.82,NE,38,0.0,5.0,100,0.00,,CLR,0.00,VWS V14.01,2013-02-26 09:35:00,
2013-02-26 03:40:00,27.2,27.2,28.82,NNE,28,1.0,2.0,100,0.00,,CLR,0.00,VWS V14.01,2013-02-26 09:40:00,
2013-02-26 03:45:00,27.3,27.3,28.82,NE,52,1.0,6.0,100,0.00,,CLR,0.00,VWS V14.01,2013-02-26 09:45:00,
2013-02-26 03:50:00,27.3,27.3,28.81,NE,52,1.0,1.0,100,0.00,,CLR,0.00,VWS V14.01,2013-02-26 09:50:00,
2013-02-26 03:55:00,27.4,27.4,28.81,NE,35,2.0,6.0,100,0.00,,CLR,0.00,VWS V14.01,2013-02-26 09:55:00,
2013-02-26 04:00:00,27.5,27.5,28.81,NNE,27,1.0,6.0,100,0.00,,CLR,0.00,VWS V14.01,2013-02-26 10:00:00,
2013-02-26 04:05:00,27.6,27.6,28.81,NNE,20,3.0,6.0,100,0.00,,CLR,0.00,VWS V14.01,2013-02-26 10:05:00,
2013-02-26 04:10:00,27.8,27.8,28.81,NNE,24,5.0,5.0,100,0.00,,CLR,0.00,VWS V14.01,2013-02-26 10:10:00,
2013-02-26 04:15:00,27.9,27.9,28.81,NE,36,2.0,5.0,100,0.00,,CLR,0.00,VWS V14.01,2013-02-26 10:15:00,
2013-02-26 04:20:00,28.0,28.0,28.81,NNE,20,3.0,4.0,100,0.00,,CLR,0.00,VWS V14.01,2013-02-26 10:20:00,
2013-02-26 04:25:00,28.1,28.1,28.81,North,8,2.0,7.0,100,0.00,,CLR,0.00,VWS V14.01,2013-02-26 10:25:00,
2013-02-26 04:30:00,28.3,28.3,28.81,NNE,15,3.0,3.0,100,0.00,,CLR,0.00,VWS V14.01,2013-02-26 10:30:00,
2013-02-26 04:35:00,28.4,28.4,28.80,NNE,17,4.0,7.0,100,0.00,,CLR,0.00,VWS V14.01,2013-02-26 10:35:00,
2013-02-26 04:40:00,28.5,28.5,28.80,North,355,5.0,6.0,100,0.00,,CLR,0.00,VWS V14.01,2013-02-26 10:40:00,
2013-02-26 04:45:00,28.5,28.5,28.80,NNE,18,5.0,6.0,100,0.00,,CLR,0.00,VWS V14.01,2013-02-26 10:45:00,
2013-02-26 04:49:00,28.5,28.5,28.80,NNE,12,5.0,8.0,100,0.00,,CLR,0.00,VWS V14.01,2013-02-26 10:49:00,
2013-02-26 04:54:00,28.6,28.6,28.80,NNE,21,6.0,8.0,100,0.00,,CLR,0.00,VWS V14.01,2013-02-26 10:54:00,
2013-02-26 05:00:00,28.6,28.6,28.80,NNE,19,5.0,9.0,100,0.00,,CLR,0.00,VWS V14.01,2013-02-26 11:00:00,
2013-02-26 05:05:00,28.6,28.6,28.79,NNE,21,6.0,8.0,100,0.00,,CLR,0.00,VWS V14.01,2013-02-26 11:05:00,
2013-02-26 05:10:00,28.7,28.7,28.79,NNE,24,2.0,5.0,100,0.00,,CLR,0.00,VWS V14.01,2013-02-26 11:10:00,
2013-02-26 05:15:00,28.6,28.6,28.79,NNE,20,5.0,6.0,100,0.00,,CLR,0.00,VWS V14.01,2013-02-26 11:15:00,
2013-02-26 05:20:00,28.6,28.6,28.80,NNE,19,2.0,3.0,100,0.00,,CLR,0.00,VWS V14.01,2013-02-26 11:20:00,
2013-02-26 05:25:00,28.6,28.6,28.79,NNE,30,4.0,7.0,100,0.00,,CLR,0.00,VWS V14.01,2013-02-26 11:25:00,
2013-02-26 05:29:00,28.7,28.7,28.80,NNE,27,4.0,7.0,100,0.00,,CLR,0.00,VWS V14.01,2013-02-26 11:29:00,
2013-02-26 05:34:00,28.7,28.7,28.80,NNE,28,0.0,9.0,100,0.00,,CLR,0.00,VWS V14.01,2013-02-26 11:34:00,
2013-02-26 05:39:00,28.8,28.8,28.80,NNE,23,5.0,9.0,100,0.00,,CLR,0.00,VWS V14.01,2013-02-26 11:39:00,
2013-02-26 05:44:00,28.8,28.8,28.80,ENE,70,3.0,8.0,100,0.00,,CLR,0.00,VWS V14.01,2013-02-26 11:44:00,
2013-02-26 05:49:00,28.8,28.8,28.79,NNE,17,4.0,8.0,100,0.00,,CLR,0.00,VWS V14.01,2013-02-26 11:49:00,
2013-02-26 05:54:00,28.8,28.8,28.79,ENE,68,3.0,7.0,100,0.00,,CLR,0.00,VWS V14.01,2013-02-26 11:54:00,
2013-02-26 05:59:00,28.8,28.8,28.79,NNE,33,3.0,10.0,100,0.00,,CLR,0.00,VWS V14.01,2013-02-26 11:59:00,
2013-02-26 06:04:00,28.8,28.8,28.79,NNE,19,2.0,8.0,100,0.00,,CLR,0.00,VWS V14.01,2013-02-26 12:04:00,
2013-02-26 06:09:00,28.8,28.8,28.78,NNE,16,6.0,9.0,100,0.00,,CLR,0.00,VWS V14.01,2013-02-26 12:09:00,
2013-02-26 06:14:00,28.8,28.8,28.78,NNE,26,4.0,11.0,100,0.00,,CLR,0.00,VWS V14.01,2013-02-26 12:14:00,
2013-02-26 06:19:00,28.8,28.8,28.77,NNE,17,7.0,11.0,100,0.00,,CLR,0.00,VWS V14.01,2013-02-26 12:19:00,
2013-02-26 06:24:00,28.8,28.8,28.76,North,6,7.0,14.0,100,0.00,,CLR,0.00,VWS V14.01,2013-02-26 12:24:00,
2013-02-26 06:29:00,28.8,28.8,28.76,NNE,14,9.0,14.0,100,0.00,,CLR,0.00,VWS V14.01,2013-02-26 12:29:00,
2013-02-26 06:34:00,28.9,28.9,28.76,NNE,14,10.0,11.0,100,0.00,,CLR,0.00,VWS V14.01,2013-02-26 12:34:00,
2013-02-26 06:39:00,28.9,28.9,28.76,NNE,25,7.0,13.0,100,0.00,,FEW120,0.00,VWS V14.01,2013-02-26 12:39:00,
2013-02-26 06:44:00,28.9,28.9,28.76,NNE,13,7.0,12.0,100,0.00,,FEW120,0.00,VWS V14.01,2013-02-26 12:44:00,
2013-02-26 06:49:00,28.9,28.9,28.76,NNE,18,7.0,12.0,100,0.00,,FEW120,0.00,VWS V14.01,2013-02-26 12:49:00,
2013-02-26 06:54:00,29.0,29.0,28.75,North,10,3.0,10.0,100,0.00,,FEW120,0.00,VWS V14.01,2013-02-26 12:54:00,
2013-02-26 06:59:00,29.1,29.1,28.75,NNE,17,7.0,15.0,100,0.00,,FEW120,0.00,VWS V14.01,2013-02-26 12:59:00,
2013-02-26 07:04:00,29.1,29.1,28.75,NNE,14,6.0,10.0,100,0.00,,FEW120,0.00,VWS V14.01,2013-02-26 13:04:00,
2013-02-26 07:09:00,29.1,29.1,28.75,NNE,24,7.0,11.0,100,0.00,,FEW120,0.00,VWS V14.01,2013-02-26 13:09:00,
2013-02-26 07:14:00,29.2,29.2,28.75,NNE,26,6.0,11.0,100,0.00,,FEW120,0.00,VWS V14.01,2013-02-26 13:14:00,
2013-02-26 07:19:00,29.2,29.2,28.74,NNE,19,10.0,14.0,100,0.00,,FEW120,0.00,VWS V14.01,2013-02-26 13:19:00,
2013-02-26 07:24:00,29.2,29.2,28.74,NNE,28,7.0,13.0,100,0.00,,FEW120,0.00,VWS V14.01,2013-02-26 13:24:00,
2013-02-26 07:29:00,29.3,29.3,28.74,NNE,18,5.0,13.0,100,0.00,,FEW120,0.00,VWS V14.01,2013-02-26 13:29:00,
2013-02-26 07:34:00,29.3,29.3,28.74,NNE,19,7.0,9.0,100,0.00,,FEW120,0.00,VWS V14.01,2013-02-26 13:34:00,
2013-02-26 07:39:00,29.3,29.3,28.74,NNE,16,6.0,13.0,100,0.00,,OVC100,0.00,VWS V14.01,2013-02-26 13:39:00,
2013-02-26 07:44:00,29.4,29.4,28.74,NNE,22,6.0,12.0,100,0.00,,OVC100,0.00,VWS V14.01,2013-02-26 13:44:00,
2013-02-26 07:49:00,29.5,29.5,28.74,NNE,25,10.0,12.0,100,0.00,,OVC100,0.00,VWS V14.01,2013-02-26 13:49:00,
2013-02-26 07:54:00,29.5,29.5,28.74,NNE,18,9.0,16.0,100,0.00,,OVC100,0.00,VWS V14.01,2013-02-26 13:54:00,
2013-02-26 07:59:00,29.6,29.6,28.75,NNE,20,4.0,16.0,100,0.00,,OVC100,0.00,VWS V14.01,2013-02-26 13:59:00,
2013-02-26 08:04:00,29.6,29.6,28.75,NNE,20,7.0,16.0,100,0.00,,OVC100,0.00,VWS V14.01,2013-02-26 14:04:00,
2013-02-26 08:09:00,29.7,29.7,28.76,NNE,21,10.0,16.0,100,0.00,,OVC100,0.00,VWS V14.01,2013-02-26 14:09:00,
2013-02-26 08:14:00,29.9,29.9,28.76,North,11,4.0,10.0,100,0.00,,OVC100,0.00,VWS V14.01,2013-02-26 14:14:00,
2013-02-26 08:19:00,30.0,30.0,28.76,NNE,20,7.0,10.0,100,0.00,,OVC100,0.00,VWS V14.01,2013-02-26 14:19:00,
2013-02-26 08:24:00,30.1,30.1,28.76,NNE,16,5.0,12.0,100,0.00,,OVC100,0.00,VWS V14.01,2013-02-26 14:24:00,
2013-02-26 08:29:00,30.2,30.2,28.76,NNE,24,9.0,12.0,100,0.00,,OVC100,0.00,VWS V14.01,2013-02-26 14:29:00,
2013-02-26 08:34:00,30.3,30.3,28.76,NNE,15,10.0,10.0,100,0.00,,OVC100,0.00,VWS V14.01,2013-02-26 14:34:00,
2013-02-26 08:39:00,30.3,30.3,28.76,North,349,6.0,10.0,100,0.00,,FEW120,0.00,VWS V14.01,2013-02-26 14:39:00,
2013-02-26 08:44:00,30.3,30.3,28.75,NNE,20,6.0,9.0,100,0.00,,FEW120,0.00,VWS V14.01,2013-02-26 14:44:00,
2013-02-26 08:49:00,30.4,30.4,28.74,NNE,16,8.0,11.0,100,0.00,,FEW120,0.00,VWS V14.01,2013-02-26 14:49:00,
2013-02-26 08:54:00,30.4,30.4,28.74,NNE,15,7.0,18.0,100,0.00,,FEW120,0.00,VWS V14.01,2013-02-26 14:54:00,
2013-02-26 08:59:00,30.4,30.4,28.74,NNE,14,9.0,18.0,100,0.00,,FEW120,0.00,VWS V14.01,2013-02-26 14:59:00,
2013-02-26 09:04:00,30.4,30.4,28.74,North,10,8.0,12.0,100,0.00,,FEW120,0.00,VWS V14.01,2013-02-26 15:04:00,
2013-02-26 09:09:00,30.5,30.5,28.73,NNE,13,6.0,14.0,100,0.00,,FEW120,0.00,VWS V14.01,2013-02-26 15:09:00,
2013-02-26 09:14:00,30.5,30.5,28.73,NNE,26,6.0,11.0,100,0.00,,FEW120,0.00,VWS V14.01,2013-02-26 15:14:00,
2013-02-26 09:19:00,30.6,30.6,28.73,NNE,14,8.0,14.0,100,0.00,,FEW120,0.00,VWS V14.01,2013-02-26 15:19:00,
2013-02-26 09:24:00,30.7,30.7,28.73,North,10,11.0,11.0,100,0.00,,FEW120,0.00,VWS V14.01,2013-02-26 15:24:00,
2013-02-26 09:29:00,30.7,30.7,28.73,NNE,19,7.0,11.0,100,0.00,,FEW120,0.00,VWS V14.01,2013-02-26 15:29:00,
2013-02-26 09:34:00,30.7,30.7,28.73,NNE,16,6.0,11.0,100,0.00,,FEW120,0.00,VWS V14.01,2013-02-26 15:34:00,
2013-02-26 09:39:00,30.8,30.8,28.73,NNE,15,7.0,11.0,100,0.00,,BKN110,0.00,VWS V14.01,2013-02-26 15:39:00,
2013-02-26 09:44:00,30.7,30.7,28.72,NNE,21,5.0,13.0,100,0.00,,BKN110,0.00,VWS V14.01,2013-02-26 15:44:00,
2013-02-26 09:49:00,30.7,30.7,28.72,North,9,13.0,14.0,100,0.00,,BKN110,0.00,VWS V14.01,2013-02-26 15:49:00,
2013-02-26 09:54:00,30.8,30.8,28.71,NNE,14,10.0,17.0,100,0.00,,BKN110,0.00,VWS V14.01,2013-02-26 15:54:00,
2013-02-26 09:59:00,30.8,30.8,28.71,North,355,7.0,17.0,100,0.00,,BKN110,0.00,VWS V14.01,2013-02-26 15:59:00,
2013-02-26 10:04:00,30.9,30.9,28.70,North,352,5.0,14.0,100,0.00,,BKN110,0.00,VWS V14.01,2013-02-26 16:04:00,
2013-02-26 10:09:00,31.0,31.0,28.70,NNE,19,10.0,14.0,100,0.00,,BKN110,0.00,VWS V14.01,2013-02-26 16:09:00,
2013-02-26 10:14:00,31.1,31.1,28.70,NNE,12,7.0,12.0,100,0.00,,BKN110,0.00,VWS V14.01,2013-02-26 16:14:00,
2013-02-26 10:19:00,31.2,31.2,28.70,NNE,31,4.0,12.0,100,0.00,,BKN110,0.00,VWS V14.01,2013-02-26 16:19:00,
2013-02-26 10:24:00,31.3,31.3,28.69,NNE,19,8.0,11.0,100,0.00,,BKN110,0.00,VWS V14.01,2013-02-26 16:24:00,
2013-02-26 10:29:00,31.4,31.4,28.70,NNE,19,6.0,14.0,100,0.00,,BKN110,0.00,VWS V14.01,2013-02-26 16:29:00,
2013-02-26 10:34:00,31.6,31.6,28.69,NNE,12,10.0,17.0,100,0.00,,BKN110,0.00,VWS V14.01,2013-02-26 16:34:00,
2013-02-26 10:39:00,31.6,31.6,28.69,NNE,14,7.0,17.0,100,0.00,,BKN120,0.00,VWS V14.01,2013-02-26 16:39:00,
2013-02-26 10:44:00,31.7,31.7,28.69,NNE,32,6.0,12.0,100,0.00,,BKN120,0.00,VWS V14.01,2013-02-26 16:44:00,
2013-02-26 10:49:00,31.8,31.8,28.68,NNE,21,11.0,17.0,100,0.00,,BKN120,0.00,VWS V14.01,2013-02-26 16:49:00,
2013-02-26 10:54:00,31.8,31.8,28.68,NNE,19,11.0,16.0,100,0.00,,BKN120,0.00,VWS V14.01,2013-02-26 16:54:00,
2013-02-26 10:59:00,31.8,31.8,28.68,NNE,17,8.0,16.0,100,0.00,,BKN120,0.00,VWS V14.01,2013-02-26 16:59:00,
2013-02-26 11:04:00,31.9,31.9,28.68,NNE,21,10.0,18.0,100,0.00,,BKN120,0.00,VWS V14.01,2013-02-26 17:04:00,
2013-02-26 11:09:00,31.9,31.9,28.67,NNW,340,5.0,18.0,100,0.00,,BKN120,0.00,VWS V14.01,2013-02-26 17:09:00,
2013-02-26 11:14:00,32.1,32.1,28.67,NNE,14,5.0,17.0,100,0.00,,BKN120,0.00,VWS V14.01,2013-02-26 17:14:00,
2013-02-26 11:19:00,32.2,32.2,28.67,NNE,17,12.0,17.0,100,0.00,,BKN120,0.00,VWS V14.01,2013-02-26 17:19:00,
2013-02-26 11:24:00,32.3,32.3,28.67,NNE,23,12.0,12.0,100,0.00,,BKN120,0.00,VWS V14.01,2013-02-26 17:24:00,
2013-02-26 11:29:00,32.4,32.4,28.68,North,8,10.0,13.0,100,0.00,,BKN120,0.00,VWS V14.01,2013-02-26 17:29:00,
2013-02-26 11:34:00,32.6,32.6,28.68,NNE,24,6.0,13.0,100,0.00,,BKN120,0.00,VWS V14.01,2013-02-26 17:34:00,
2013-02-26 11:39:00,32.6,32.6,28.68,NNE,18,8.0,16.0,100,0.00,,SCT120,0.00,VWS V14.01,2013-02-26 17:39:00,
2013-02-26 11:44:00,32.7,32.7,28.67,NNE,20,8.0,13.0,100,0.00,,SCT120,0.00,VWS V14.01,2013-02-26 17:44:00,
2013-02-26 11:49:00,32.9,32.9,28.67,NNE,20,7.0,14.0,100,0.00,,SCT120,0.00,VWS V14.01,2013-02-26 17:49:00,
2013-02-26 11:54:00,33.0,33.0,28.67,NNE,25,12.0,20.0,100,0.00,,SCT120,0.00,VWS V14.01,2013-02-26 17:54:00,
2013-02-26 11:59:00,33.1,33.1,28.67,NNE,13,13.0,20.0,100,0.00,,SCT120,0.00,VWS V14.01,2013-02-26 17:59:00,
2013-02-26 12:04:00,33.2,33.2,28.67,NNW,344,4.0,13.0,100,0.00,,SCT120,0.00,VWS V14.01,2013-02-26 18:04:00,
2013-02-26 12:09:00,33.2,33.2,28.66,NNE,12,11.0,17.0,100,0.00,,SCT120,0.00,VWS V14.01,2013-02-26 18:09:00,
2013-02-26 12:14:00,33.2,33.2,28.66,NNE,21,7.0,17.0,100,0.00,,SCT120,0.00,VWS V14.01,2013-02-26 18:14:00,
2013-02-26 12:19:00,33.2,33.2,28.66,NNE,23,11.0,18.0,100,0.00,,SCT120,0.00,VWS V14.01,2013-02-26 18:19:00,
2013-02-26 12:24:00,33.2,33.2,28.66,NNE,16,10.0,18.0,100,0.00,,SCT120,0.00,VWS V14.01,2013-02-26 18:24:00,
2013-02-26 12:29:00,33.4,33.4,28.65,NNE,29,15.0,18.0,100,0.00,,SCT120,0.00,VWS V14.01,2013-02-26 18:29:00,
2013-02-26 12:34:00,33.4,33.4,28.66,North,6,11.0,17.0,100,0.00,,SCT120,0.00,VWS V14.01,2013-02-26 18:34:00,
2013-02-26 12:39:00,33.6,33.6,28.66,NNE,32,3.0,17.0,100,0.00,,BKN120,0.00,VWS V14.01,2013-02-26 18:39:00,
2013-02-26 12:44:00,33.7,33.7,28.66,NNE,13,10.0,12.0,100,0.00,,BKN120,0.00,VWS V14.01,2013-02-26 18:44:00,
2013-02-26 12:49:00,33.8,33.8,28.65,NNE,19,12.0,20.0,100,0.00,,BKN120,0.00,VWS V14.01,2013-02-26 18:49:00,
2013-02-26 12:54:00,33.8,33.8,28.64,North,8,11.0,22.0,100,0.00,,BKN120,0.00,VWS V14.01,2013-02-26 18:54:00,
2013-02-26 12:59:00,33.6,33.6,28.64,NNE,18,14.0,22.0,100,0.00,,BKN120,0.00,VWS V14.01,2013-02-26 18:59:00,
2013-02-26 13:04:00,33.6,33.6,28.64,NNE,23,8.0,15.0,100,0.00,,BKN120,0.00,VWS V14.01,2013-02-26 19:04:00,
2013-02-26 13:09:00,33.5,33.5,28.63,North,351,9.0,17.0,100,0.00,,BKN120,0.00,VWS V14.01,2013-02-26 19:09:00,
2013-02-26 13:14:00,33.5,33.5,28.64,NNW,336,3.0,16.0,100,0.00,,BKN120,0.00,VWS V14.01,2013-02-26 19:14:00,
2013-02-26 13:19:00,33.4,33.4,28.64,NNE,24,9.0,16.0,100,0.00,,BKN120,0.00,VWS V14.01,2013-02-26 19:19:00,
2013-02-26 13:24:00,33.3,33.3,28.63,NNE,19,12.0,15.0,100,0.00,,BKN120,0.00,VWS V14.01,2013-02-26 19:24:00,
2013-02-26 13:29:00,33.2,33.2,28.62,NNE,13,18.0,19.0,100,0.00,,BKN120,0.00,VWS V14.01,2013-02-26 19:29:00,
2013-02-26 13:34:00,32.8,32.8,28.62,NNE,14,13.0,22.0,100,0.00,,BKN120,0.00,VWS V14.01,2013-02-26 19:34:00,
2013-02-26 13:39:00,32.6,32.6,28.62,NNE,15,16.0,22.0,100,0.00,,BKN110,0.00,VWS V14.01,2013-02-26 19:39:00,
2013-02-26 13:44:00,32.5,32.5,28.62,NNW,347,10.0,18.0,100,0.00,,BKN110,0.00,VWS V14.01,2013-02-26 19:44:00,
2013-02-26 13:49:00,32.5,32.5,28.63,NNE,14,5.0,18.0,100,0.00,,BKN110,0.00,VWS V14.01,2013-02-26 19:49:00,
2013-02-26 13:54:00,32.5,32.5,28.63,NNE,20,10.0,12.0,100,0.00,,BKN110,0.00,VWS V14.01,2013-02-26 19:54:00,
2013-02-26 13:59:00,32.5,32.5,28.63,NNE,22,7.0,13.0,100,0.00,,BKN110,0.00,VWS V14.01,2013-02-26 19:59:00,
2013-02-26 14:04:00,32.5,32.5,28.63,North,9,3.0,19.0,100,0.00,,BKN110,0.00,VWS V14.01,2013-02-26 20:04:00,
2013-02-26 14:09:00,32.5,32.5,28.62,NNE,15,9.0,19.0,100,0.00,,BKN110,0.00,VWS V14.01,2013-02-26 20:09:00,
2013-02-26 14:14:00,32.4,32.4,28.62,NNE,24,7.0,15.0,100,0.00,,BKN110,0.00,VWS V14.01,2013-02-26 20:14:00,
2013-02-26 14:19:00,32.4,32.4,28.62,North,354,15.0,21.0,100,0.00,,BKN110,0.00,VWS V14.01,2013-02-26 20:19:00,
2013-02-26 14:24:00,32.4,32.4,28.61,North,354,11.0,23.0,100,0.00,,BKN110,0.00,VWS V14.01,2013-02-26 20:24:00,
2013-02-26 14:29:00,32.4,32.4,28.61,NNE,14,10.0,23.0,100,0.00,,BKN110,0.00,VWS V14.01,2013-02-26 20:29:00,
2013-02-26 14:34:00,32.5,32.5,28.61,North,6,7.0,14.0,100,0.00,,BKN110,0.00,VWS V14.01,2013-02-26 20:34:00,
2013-02-26 14:39:00,32.5,32.5,28.60,NNE,18,14.0,16.0,100,0.00,,OVC100,0.00,VWS V14.01,2013-02-26 20:39:00,
2013-02-26 14:44:00,32.5,32.5,28.61,NNE,27,8.0,18.0,100,0.00,,OVC100,0.00,VWS V14.01,2013-02-26 20:44:00,
2013-02-26 14:49:00,32.4,32.4,28.60,North,4,13.0,21.0,100,0.00,,OVC100,0.00,VWS V14.01,2013-02-26 20:49:00,
2013-02-26 14:54:00,32.4,32.4,28.61,NNE,19,16.0,20.0,100,0.00,,OVC100,0.00,VWS V14.01,2013-02-26 20:54:00,
2013-02-26 14:59:00,32.3,32.3,28.61,NNE,19,14.0,24.0,100,0.00,,OVC100,0.00,VWS V14.01,2013-02-26 20:59:00,
2013-02-26 15:04:00,32.2,32.2,28.61,NNE,17,14.0,19.0,100,0.00,,OVC100,0.00,VWS V14.01,2013-02-26 21:04:00,
2013-02-26 15:09:00,32.1,32.1,28.62,North,8,10.0,19.0,100,0.00,,OVC100,0.00,VWS V14.01,2013-02-26 21:09:00,
2013-02-26 15:14:00,32.1,32.1,28.62,NNE,16,6.0,14.0,100,0.00,,OVC100,0.00,VWS V14.01,2013-02-26 21:14:00,
2013-02-26 15:19:00,32.0,32.0,28.62,NNE,32,11.0,14.0,100,0.00,,OVC100,0.00,VWS V14.01,2013-02-26 21:19:00,
2013-02-26 15:24:00,31.9,31.9,28.61,NNE,18,8.0,14.0,100,0.00,,OVC100,0.00,VWS V14.01,2013-02-26 21:24:00,
2013-02-26 15:29:00,31.9,31.9,28.61,NNE,15,9.0,15.0,100,0.00,,OVC100,0.00,VWS V14.01,2013-02-26 21:29:00,
2013-02-26 15:34:00,31.9,31.9,28.61,NNW,346,5.0,15.0,100,0.00,,OVC100,0.00,VWS V14.01,2013-02-26 21:34:00,
2013-02-26 15:39:00,31.9,31.9,28.61,NNE,12,9.0,20.0,100,0.00,,OVC100,0.00,VWS V14.01,2013-02-26 21:39:00,
2013-02-26 15:44:00,31.9,31.9,28.60,North,11,9.0,22.0,100,0.00,,OVC100,0.00,VWS V14.01,2013-02-26 21:44:00,
2013-02-26 15:49:00,31.9,31.9,28.60,NNE,19,16.0,22.0,100,0.00,,OVC100,0.00,VWS V14.01,2013-02-26 21:49:00,
2013-02-26 15:54:00,31.8,31.8,28.60,North,6,15.0,24.0,100,0.00,,OVC100,0.00,VWS V14.01,2013-02-26 21:54:00,
2013-02-26 15:59:00,31.8,31.8,28.60,NNE,15,11.0,24.0,100,0.00,,OVC100,0.00,VWS V14.01,2013-02-26 21:59:00,
2013-02-26 16:04:00,31.7,31.7,28.60,NNE,22,15.0,29.0,100,0.00,,OVC100,0.00,VWS V14.01,2013-02-26 22:04:00,
2013-02-26 16:09:00,31.7,31.7,28.60,NNE,13,13.0,29.0,100,0.00,,OVC100,0.00,VWS V14.01,2013-02-26 22:09:00,
2013-02-26 16:14:00,31.6,31.6,28.59,NNE,19,16.0,24.0,100,0.00,,OVC100,0.00,VWS V14.01,2013-02-26 22:14:00,
2013-02-26 16:19:00,31.6,31.6,28.60,NNE,22,16.0,24.0,100,0.00,,OVC100,0.00,VWS V14.01,2013-02-26 22:19:00,
2013-02-26 16:24:00,31.5,31.5,28.59,North,11,14.0,25.0,100,0.00,,OVC100,0.00,VWS V14.01,2013-02-26 22:24:00,
2013-02-26 16:29:00,31.4,31.4,28.60,NNE,29,11.0,25.0,100,0.00,,OVC100,0.00,VWS V14.01,2013-02-26 22:29:00,
2013-02-26 16:34:00,31.3,31.3,28.60,NNE,27,10.0,24.0,100,0.00,,OVC100,0.00,VWS V14.01,2013-02-26 22:34:00,
2013-02-26 16:39:00,31.3,31.3,28.60,NNE,17,16.0,24.0,100,0.00,,OVC100,0.00,VWS V14.01,2013-02-26 22:39:00,
2013-02-26 16:44:00,31.3,31.3,28.60,NNE,15,13.0,23.0,100,0.00,,OVC100,0.00,VWS V14.01,2013-02-26 22:44:00,
2013-02-26 16:49:00,31.2,31.2,28.60,NNE,23,10.0,23.0,100,0.00,,OVC100,0.00,VWS V14.01,2013-02-26 22:49:00,
2013-02-26 16:54:00,31.2,31.2,28.60,NNE,18,12.0,21.0,100,0.00,,OVC100,0.00,VWS V14.01,2013-02-26 22:54:00,
2013-02-26 16:59:00,31.2,31.2,28.60,North,6,12.0,21.0,100,0.00,,OVC100,0.00,VWS V14.01,2013-02-26 22:59:00,
2013-02-26 17:04:00,31.1,31.1,28.60,NNE,13,14.0,25.0,100,0.00,,OVC100,0.00,VWS V14.01,2013-02-26 23:04:00,
2013-02-26 17:09:00,31.1,31.1,28.60,North,6,14.0,25.0,100,0.00,,OVC100,0.00,VWS V14.01,2013-02-26 23:09:00,
2013-02-26 17:14:00,31.0,31.0,28.59,North,353,10.0,26.0,100,0.00,,OVC100,0.00,VWS V14.01,2013-02-26 23:14:00,
2013-02-26 17:19:00,31.0,31.0,28.59,North,6,15.0,26.0,100,0.00,,OVC100,0.00,VWS V14.01,2013-02-26 23:19:00,
2013-02-26 17:24:00,31.0,31.0,28.60,NNE,19,15.0,26.0,100,0.00,,OVC100,0.00,VWS V14.01,2013-02-26 23:24:00,
2013-02-26 17:29:00,30.9,30.9,28.60,NNE,16,12.0,26.0,100,0.00,,OVC100,0.00,VWS V14.01,2013-02-26 23:29:00,
2013-02-26 17:34:00,30.9,30.9,28.60,North,11,14.0,23.0,100,0.00,,OVC100,0.00,VWS V14.01,2013-02-26 23:34:00,
2013-02-26 17:39:00,30.9,30.9,28.60,NNE,17,11.0,23.0,100,0.00,,,0.00,VWS V14.01,2013-02-26 23:39:00,
2013-02-26 17:44:00,30.8,30.8,28.60,NNE,24,19.0,22.0,100,0.00,,,0.00,VWS V14.01,2013-02-26 23:44:00,
2013-02-26 17:49:00,30.8,30.8,28.60,NNE,14,13.0,26.0,100,0.00,,,0.00,VWS V14.01,2013-02-26 23:49:00,
2013-02-26 17:54:00,30.6,30.6,28.60,NNE,13,10.0,28.0,100,0.00,,,0.00,VWS V14.01,2013-02-26 23:54:00,
2013-02-26 17:59:00,30.3,30.3,28.60,NNE,15,15.0,28.0,100,0.00,,,0.00,VWS V14.01,2013-02-26 23:59:00,
2013-02-26 18:04:00,30.2,30.2,28.60,NNE,15,18.0,23.0,100,0.00,,,0.00,VWS V14.01,2013-02-27 00:04:00,
2013-02-26 18:09:00,30.0,30.0,28.61,NNE,19,14.0,23.0,100,0.00,,,0.00,VWS V14.01,2013-02-27 00:09:00,
2013-02-26 18:14:00,29.9,29.9,28.61,NNE,15,9.0,20.0,100,0.00,,,0.00,VWS V14.01,2013-02-27 00:14:00,
2013-02-26 18:19:00,29.8,29.8,28.61,North,8,15.0,22.0,100,0.00,,,0.00,VWS V14.01,2013-02-27 00:19:00,
2013-02-26 18:24:00,29.7,29.7,28.61,NNE,23,11.0,18.0,100,0.00,,,0.00,VWS V14.01,2013-02-27 00:24:00,
2013-02-26 18:29:00,29.7,29.7,28.62,North,356,8.0,18.0,100,0.00,,,0.00,VWS V14.01,2013-02-27 00:29:00,
2013-02-26 18:34:00,29.6,29.6,28.62,NNE,16,10.0,18.0,100,0.00,,,0.00,VWS V14.01,2013-02-27 00:34:00,
2013-02-26 18:39:00,29.6,29.6,28.62,North,3,8.0,19.0,100,0.00,,,0.00,VWS V14.01,2013-02-27 00:39:00,
2013-02-26 18:44:00,29.6,29.6,28.62,NNE,25,13.0,20.0,100,0.00,,,0.00,VWS V14.01,2013-02-27 00:44:00,
2013-02-26 18:49:00,29.5,29.5,28.62,NNE,16,13.0,20.0,100,0.00,,,0.00,VWS V14.01,2013-02-27 00:49:00,
2013-02-26 18:54:00,29.5,29.5,28.63,NNE,13,11.0,20.0,100,0.00,,,0.00,VWS V14.01,2013-02-27 00:54:00,
2013-02-26 18:59:00,29.4,29.4,28.62,NNE,17,14.0,20.0,100,0.00,,,0.00,VWS V14.01,2013-02-27 00:59:00,
2013-02-26 19:04:00,29.3,29.3,28.62,North,4,13.0,14.0,100,0.00,,,0.00,VWS V14.01,2013-02-27 01:04:00,
2013-02-26 19:09:00,29.3,29.3,28.62,NNW,339,7.0,16.0,100,0.00,,,0.00,VWS V14.01,2013-02-27 01:09:00,
2013-02-26 19:14:00,29.2,29.2,28.62,NNE,16,13.0,14.0,100,0.00,,,0.00,VWS V14.01,2013-02-27 01:14:00,
2013-02-26 19:19:00,29.2,29.2,28.62,NNE,17,11.0,17.0,100,0.00,,,0.00,VWS V14.01,2013-02-27 01:19:00,
2013-02-26 19:24:00,29.1,29.1,28.62,NNE,19,9.0,20.0,100,0.00,,,0.00,VWS V14.01,2013-02-27 01:24:00,
2013-02-26 19:29:00,29.1,29.1,28.62,NNE,21,9.0,20.0,100,0.00,,,0.00,VWS V14.01,2013-02-27 01:29:00,
2013-02-26 19:34:00,29.0,29.0,28.62,NNE,23,11.0,16.0,100,0.00,,,0.00,VWS V14.01,2013-02-27 01:34:00,
2013-02-26 19:39:00,29.0,29.0,28.62,NNE,15,15.0,16.0,100,0.00,,,0.00,VWS V14.01,2013-02-27 01:39:00,
2013-02-26 19:44:00,28.9,28.9,28.62,North,11,7.0,20.0,100,0.00,,,0.00,VWS V14.01,2013-02-27 01:44:00,
2013-02-26 19:49:00,28.8,28.8,28.61,North,10,11.0,20.0,100,0.00,,,0.00,VWS V14.01,2013-02-27 01:49:00,
2013-02-26 19:54:00,28.8,28.8,28.62,North,0,14.0,17.0,100,0.00,,,0.00,VWS V14.01,2013-02-27 01:54:00,
2013-02-26 19:59:00,28.8,28.8,28.61,North,8,13.0,17.0,100,0.00,,,0.00,VWS V14.01,2013-02-27 01:59:00,
2013-02-26 20:04:00,28.7,28.7,28.61,North,7,16.0,19.0,100,0.00,,,0.00,VWS V14.01,2013-02-27 02:04:00,
2013-02-26 20:09:00,28.7,28.7,28.61,NNE,16,12.0,20.0,100,0.00,,,0.00,VWS V14.01,2013-02-27 02:09:00,
2013-02-26 20:14:00,28.7,28.7,28.61,NNE,16,8.0,17.0,100,0.00,,,0.00,VWS V14.01,2013-02-27 02:14:00,
2013-02-26 20:19:00,28.7,28.7,28.61,NNE,16,12.0,17.0,100,0.00,,,0.00,VWS V14.01,2013-02-27 02:19:00,
2013-02-26 20:24:00,28.6,28.6,28.61,NNE,13,15.0,18.0,100,0.00,,,0.00,VWS V14.01,2013-02-27 02:24:00,
2013-02-26 20:29:00,28.6,28.6,28.61,NNE,16,10.0,20.0,100,0.00,,,0.00,VWS V14.01,2013-02-27 02:29:00,
2013-02-26 20:34:00,28.6,28.6,28.61,NNE,14,10.0,16.0,100,0.00,,,0.00,VWS V14.01,2013-02-27 02:34:00,
2013-02-26 20:39:00,28.6,28.6,28.61,NNE,23,17.0,17.0,100,0.00,,,0.00,VWS V14.01,2013-02-27 02:39:00,
2013-02-26 20:44:00,28.6,28.6,28.61,NNE,17,8.0,19.0,100,0.00,,,0.00,VWS V14.01,2013-02-27 02:44:00,
2013-02-26 20:49:00,28.6,28.6,28.62,NNE,17,7.0,19.0,100,0.00,,,0.00,VWS V14.01,2013-02-27 02:49:00,
2013-02-26 20:54:00,28.5,28.5,28.61,NNE,23,14.0,16.0,100,0.00,,,0.00,VWS V14.01,2013-02-27 02:54:00,
2013-02-26 20:59:00,28.5,28.5,28.61,NNE,14,10.0,16.0,100,0.00,,,0.00,VWS V14.01,2013-02-27 02:59:00,
2013-02-26 21:04:00,28.5,28.5,28.61,NNE,15,18.0,24.0,100,0.00,,,0.00,VWS V14.01,2013-02-27 03:04:00,
2013-02-26 21:09:00,28.4,28.4,28.61,North,355,8.0,24.0,100,0.00,,,0.00,VWS V14.01,2013-02-27 03:09:00,
2013-02-26 21:14:00,28.4,28.4,28.61,NNE,21,12.0,15.0,100,0.00,,,0.00,VWS V14.01,2013-02-27 03:14:00,
2013-02-26 21:19:00,28.4,28.4,28.60,North,8,9.0,17.0,100,0.00,,,0.00,VWS V14.01,2013-02-27 03:19:00,
2013-02-26 21:24:00,28.3,28.3,28.60,North,3,21.0,21.0,100,0.00,,,0.00,VWS V14.01,2013-02-27 03:24:00,
2013-02-26 21:29:00,28.2,28.2,28.60,NNE,14,8.0,21.0,100,0.00,,,0.00,VWS V14.01,2013-02-27 03:29:00,
2013-02-26 21:34:00,28.2,28.2,28.60,NNE,15,12.0,20.0,100,0.00,,,0.00,VWS V14.01,2013-02-27 03:34:00,
2013-02-26 21:39:00,28.1,28.1,28.60,NNE,18,10.0,20.0,100,0.00,,,0.00,VWS V14.01,2013-02-27 03:39:00,
2013-02-26 21:44:00,28.1,28.1,28.60,NNE,30,12.0,15.0,100,0.00,,,0.00,VWS V14.01,2013-02-27 03:44:00,
2013-02-26 21:49:00,28.0,28.0,28.60,North,7,12.0,15.0,100,0.00,,,0.00,VWS V14.01,2013-02-27 03:49:00,
2013-02-26 21:54:00,28.0,28.0,28.60,North,2,6.0,16.0,100,0.00,,,0.00,VWS V14.01,2013-02-27 03:54:00,
2013-02-26 21:59:00,27.9,27.9,28.59,NNE,27,15.0,18.0,100,0.00,,,0.00,VWS V14.01,2013-02-27 03:59:00,
2013-02-26 22:04:00,27.9,27.9,28.59,North,7,6.0,19.0,100,0.00,,,0.00,VWS V14.01,2013-02-27 04:04:00,
2013-02-26 22:09:00,27.8,27.8,28.59,North,358,12.0,19.0,100,0.00,,,0.00,VWS V14.01,2013-02-27 04:09:00,
2013-02-26 22:14:00,27.8,27.8,28.59,NNE,17,8.0,18.0,100,0.00,,,0.00,VWS V14.01,2013-02-27 04:14:00,
2013-02-26 22:19:00,27.8,27.8,28.59,North,4,8.0,18.0,100,0.00,,,0.00,VWS V14.01,2013-02-27 04:19:00,
2013-02-26 22:24:00,27.8,27.8,28.60,North,350,12.0,16.0,100,0.00,,,0.00,VWS V14.01,2013-02-27 04:24:00,
2013-02-26 22:29:00,27.7,27.7,28.59,NNE,17,10.0,16.0,100,0.00,,,0.00,VWS V14.01,2013-02-27 04:29:00,
2013-02-26 22:34:00,27.7,27.7,28.59,North,10,11.0,17.0,100,0.00,,,0.00,VWS V14.01,2013-02-27 04:34:00,
2013-02-26 22:39:00,27.7,27.7,28.59,NNE,13,8.0,17.0,100,0.00,,,0.00,VWS V14.01,2013-02-27 04:39:00,
2013-02-26 22:44:00,27.6,27.6,28.59,NNE,15,15.0,19.0,100,0.00,,,0.00,VWS V14.01,2013-02-27 04:44:00,
2013-02-26 22:49:00,27.6,27.6,28.59,NNE,17,9.0,19.0,100,0.00,,,0.00,VWS V14.01,2013-02-27 04:49:00,
2013-02-26 22:54:00,27.6,27.6,28.59,NNE,12,9.0,15.0,100,0.00,,,0.00,VWS V14.01,2013-02-27 04:54:00,
2013-02-26 22:59:00,27.6,27.6,28.59,NNE,13,11.0,17.0,100,0.00,,,0.00,VWS V14.01,2013-02-27 04:59:00,
2013-02-26 23:00:00,27.6,27.6,28.59,North,353,8.0,11.0,100,0.00,,,0.00,VWS V14.01,2013-02-27 05:00:00,
2013-02-26 23:05:00,27.5,27.5,28.59,North,4,10.0,15.0,100,0.00,,,0.00,VWS V14.01,2013-02-27 05:05:00,
2013-02-26 23:10:00,27.5,27.5,28.59,North,10,9.0,13.0,100,0.00,,,0.00,VWS V14.01,2013-02-27 05:10:00,
2013-02-26 23:15:00,27.5,27.5,28.58,NNW,336,12.0,15.0,100,0.00,,,0.00,VWS V14.01,2013-02-27 05:15:00,
2013-02-26 23:20:00,27.5,27.5,28.58,North,10,8.0,12.0,100,0.00,,,0.00,VWS V14.01,2013-02-27 05:20:00,
2013-02-26 23:25:00,27.5,27.5,28.59,NNE,14,11.0,18.0,100,0.00,,,0.00,VWS V14.01,2013-02-27 05:25:00,
2013-02-26 23:30:00,27.5,27.5,28.58,North,359,6.0,8.0,100,0.00,,,0.00,VWS V14.01,2013-02-27 05:30:00,
2013-02-26 23:35:00,27.5,27.5,28.59,NNE,16,9.0,18.0,100,0.00,,,0.00,VWS V14.01,2013-02-27 05:35:00,
2013-02-26 23:40:00,27.5,27.5,28.58,NNE,17,8.0,10.0,100,0.00,,,0.00,VWS V14.01,2013-02-27 05:40:00,
2013-02-26 23:45:00,27.4,27.4,28.59,NNE,17,10.0,16.0,100,0.00,,,0.00,VWS V14.01,2013-02-27 05:45:00,
2013-02-26 23:50:00,27.4,27.4,28.59,NNE,19,10.0,11.0,100,0.00,,,0.00,VWS V14.01,2013-02-27 05:50:00,
2013-02-26 23:55:00,27.4,27.4,28.59,NNE,16,10.0,14.0,100,0.00,,,0.00,VWS V14.01,2013-02-27 05:55:00,